Vorticity
10 10 10 10 10 10 10 10 10 10 10 10 10 9 9 10 10 10 10 10 10 10 10 10 10 10 10 10 9 9 8 8 9 9 10 12 13 13 13 13 13 12 12 13 14 15 15 14 13 12 12 12 13 13 13 13 13 12 12 12 13 13 13 13 14 14 14 14 14
10 10 10 10 10 10 10 10 10 10 10 10 10 10 10 10 10 10 10 10 10 10 10 10 10 11 11 11 10 10 9 9 9 9 9 10 11 12 13 13 13 13 12 13 14 15 15 15 14 13 12 11 12 13 13 13 13 13 12 12 12 12 13 12 13 13 13 13 14
10 10 10 10 10 10 10 10 10 11 11 11 11 11 11 11 10 10 10 10 10 10 10 10 10 11 11 11 11 11 10 9 9 9 9 10 10 11 12 13 13 13 13 12 13 14 15 16 15 14 12 11 12 13 13 13 13 13 12 11 11 12 13 13 13 13 13 13 13
10 10 10 10 10 11 11 11 11 11 11 11 11 11 11 11 11 11 11 10 11 11 11 10 10 11 11 11 11 11 11 10 10 9 9 9 10 10 11 12 13 13 13 12 12 13 14 16 16 15 13 12 12 13 13 12 12 12 12 11 11 12 13 13 13 14 14 13 13
10 10 10 10 11 11 11 11 11 11 11 11 11 12 12 12 11 11 11 12 12 12 11 11 11 11 11 11 11 11 11 11 10 10 10 10 10 10 11 12 12 13 13 13 13 13 13 15 15 16 15 13 13 13 13 12 12 11 11 11 12 12 12 13 13 14 14 14 14
10 10 10 10 11 11 11 12 12 12 11 12 12 12 12 12 12 12 13 13 12 12 12 11 11 11 11 11 11 12 12 12 11 11 11 10 10 11 11 11 12 13 13 14 13 13 13 14 15 16 17 16 14 13 12 11 11 11 10 10 11 11 12 12 13 14 15 15 14
10 10 10 10 11 11 11 12 12 12 12 12 13 13 12 12 12 13 13 12 12 12 12 12 12 12 12 12 12 12 12 12 12 12 12 12 11 11 11 12 12 13 14 14 14 13 13 14 15 16 18 18 17 15 13 10 9 9 9 9 8 9 10 11 12 13 14 15 14
10 10 10 11 11 11 11 12 12 12 12 13 13 13 13 13 13 13 13 13 13 13 13 13 13 12 12 12 12 13 13 13 13 13 13 13 12 12 12 12 13 13 14 14 15 14 14 14 14 16 18 20 20 19 16 12 10 9 8 8 7 8 9 11 12 13 14 15 15
10 11 11 11 11 11 12 12 12 12 12 13 13 13 13 13 13 13 13 14 14 13 13 13 13 13 13 13 13 14 14 14 13 13 13 13 13 13 13 13 13 14 15 15 15 15 14 14 14 15 17 20 21 21 19 16 13 11 9 8 7 7 8 10 11 13 14 16 16
11 11 11 11 12 12 12 12 12 12 12 13 13 13 13 13 13 14 14 14 13 13 14 14 14 14 14 14 14 14 14 14 14 13 13 13 14 14 14 14 14 15 16 16 16 16 15 14 14 15 17 19 21 21 21 19 17 15 13 11 9 8 8 9 10 12 13 15 17
11 12 12 12 12 11 11 12 12 12 12 12 13 13 13 13 14 14 14 13 14 14 14 14 14 15 15 15 15 15 14 14 13 13 13 13 14 14 15 15 16 17 17 18 17 16 16 16 16 16 17 18 20 20 20 20 19 18 17 14 11 9 8 8 9 10 11 14 17
12 12 12 12 12 12 12 12 12 12 12 13 13 13 13 14 14 13 13 13 14 14 14 14 15 16 16 16 16 15 14 13 13 12 13 13 14 15 16 16 17 18 19 19 18 18 18 18 19 19 19 19 20 19 19 18 18 19 18 17 14 11 8 7 7 8 9 12 15
12 12 12 12 12 12 12 12 12 12 13 13 13 13 13 13 13 13 13 14 14 14 14 15 16 16 16 16 15 14 13 12 12 12 12 13 14 15 17 18 19 20 21 21 20 20 21 23 23 23 22 21 20 19 18 17 16 17 17 17 14 11 8 6 6 6 8 10 14
13 13 13 13 13 13 13 13 13 13 13 13 13 13 13 13 13 13 13 14 14 14 15 15 16 16 16 15 14 13 12 11 11 12 12 13 14 16 18 20 21 23 23 22 21 22 24 27 26 25 23 22 21 20 18 16 15 14 14 14 14 12 9 7 7 8 9 10 13
13 13 13 13 13 13 13 13 13 13 13 13 13 13 13 13 13 13 13 14 14 14 15 15 16 16 15 14 13 12 11 10 11 11 12 14 15 17 19 21 24 25 25 23 19 19 21 23 21 20 19 21 22 21 19 16 14 13 12 13 13 13 12 11 10 10 11 10 12
13 13 13 13 13 13 13 13 12 12 13 13 13 13 13 13 13 13 13 14 14 14 15 16 15 15 14 13 11 10 10 10 10 11 13 14 16 18 21 24 27 28 26 19 12 11 13 13 11 9 9 12 17 19 19 17 14 12 12 12 13 14 14 14 13 12 11 9 9
13 13 13 13 13 13 13 12 12 12 12 13 13 13 13 13 13 13 13 14 14 15 15 16 15 14 13 11 10 9 9 9 10 11 13 14 17 19 23 27 30 30 24 9 2 2 6 6 9 6 2 3 7 12 15 16 14 13 13 13 14 14 15 16 15 14 11 7 6
13 13 13 13 13 12 12 12 12 12 12 12 13 13 13 13 13 13 13 14 14 15 15 16 15 13 11 10 9 8 8 8 9 10 12 14 17 21 25 30 33 31 20 -4 -8 -5 -0 0 13 13 8 3 2 4 8 11 13 14 14 15 15 16 16 17 17 15 12 7 4
13 13 13 13 13 12 12 12 12 12 12 12 12 13 13 13 13 13 13 14 15 15 16 16 15 13 10 9 8 8 8 8 8 9 11 14 17 22 27 32 36 31 14 -16 -13 -7 -2 -1 12 19 20 14 7 5 5 8 11 14 15 16 17 17 18 19 19 17 14 9 5
13 13 13 13 12 12 12 12 12 12 12 12 12 12 13 13 13 13 13 14 15 16 17 17 15 12 10 8 7 7 7 7 7 8 10 13 18 23 28 35 38 29 9 -24 -18 -7 1 2 9 15 18 18 14 11 10 10 12 14 16 17 18 18 20 21 21 19 17 13 8
13 13 12 12 12 12 12 12 12 12 12 12 12 12 13 13 13 13 13 14 15 16 17 18 16 13 9 7 6 6 6 7 6 7 9 13 18 23 29 36 39 26 3 -24 -17 -5 5 8 8 6 7 11 14 15 15 14 14 14 15 16 16 17 19 21 22 21 20 17 11
13 12 12 12 12 12 12 12 12 12 12 12 12 12 12 12 13 13 13 13 14 16 18 19 18 14 10 6 5 6 6 6 6 6 8 11 17 23 30 37 40 23 -2 -21 -10 0 9 14 12 6 3 9 14 17 17 16 14 14 13 13 13 14 16 18 20 22 22 20 13
12 12 12 12 11 11 11 11 11 11 11 11 11 11 11 12 12 12 12 13 14 16 18 20 19 17 12 7 5 5 6 6 6 5 6 9 15 22 29 37 39 21 -4 -22 -6 -0 3 12 22 19 13 15 16 17 17 16 15 14 13 13 12 13 14 15 18 21 23 22 15
12 11 11 11 11 11 11 10 11 11 11 10 10 10 10 10 11 11 11 11 13 14 17 19 21 19 16 10 6 5 5 6 6 5 5 7 13 20 29 36 39 22 -4 -29 -8 -8 -10 9 24 28 25 21 18 17 17 16 16 15 14 13 13 12 12 13 16 20 22 23 17
12 11 11 11 11 10 10 10 10 10 10 9 9 9 9 9 9 9 9 10 11 12 14 17 20 21 20 15 9 6 5 6 6 5 5 5 10 18 27 36 39 25 -1 -33 -18 -19 -17 4 22 28 26 22 21 19 18 17 16 16 15 14 13 12 12 12 14 17 21 22 19
11 11 11 11 10 10 10 9 9 9 8 8 8 8 8 8 8 7 8 8 8 9 11 13 17 20 22 20 14 9 6 6 6 5 4 4 8 15 25 35 40 30 6 -27 -25 -25 -21 -5 17 24 24 22 22 20 18 17 16 15 14 14 14 14 13 12 13 15 18 21 19
11 11 11 10 10 9 9 8 8 8 8 8 8 8 8 8 7 7 7 7 7 7 8 10 13 17 20 22 18 13 9 7 6 5 4 3 7 13 21 32 39 33 14 -18 -22 -24 -23 -14 11 24 27 25 23 21 18 15 14 13 13 13 14 15 15 14 14 15 18 21 21
11 10 10 9 9 9 8 8 8 8 8 8 9 9 8 9 8 8 8 7 7 7 7 8 9 12 16 20 20 17 13 10 8 6 4 3 6 10 18 27 36 34 20 -8 -24 -28 -24 -16 1 16 25 27 24 20 17 15 13 12 12 14 15 15 14 14 15 17 20 22 25
10 10 9 9 9 9 8 8 9 9 9 10 10 10 10 11 11 11 10 9 9 8 8 8 8 10 13 16 19 18 16 13 11 8 6 3 5 9 15 23 31 33 25 6 -17 -30 -32 -20 -3 13 25 31 24 19 16 14 13 13 13 16 16 13 11 12 14 16 19 21 24
9 9 9 9 9 9 9 10 10 10 11 11 12 12 13 14 14 14 14 13 12 11 10 9 9 10 12 13 16 18 18 15 13 10 7 3 4 8 13 19 27 31 29 18 0 -19 -30 -25 -9 9 24 30 22 17 14 14 13 14 15 19 14 11 9 10 13 15 17 19 21
9 9 9 9 9 10 10 10 10 11 11 12 13 14 15 16 17 18 18 18 16 14 12 11 10 11 11 12 14 16 17 16 15 12 9 5 4 7 11 17 23 27 29 26 16 -3 -20 -28 -17 4 23 29 20 15 13 13 13 15 17 17 11 10 11 12 14 15 16 17 18
9 9 9 9 9 9 10 10 10 11 12 13 14 15 16 18 19 20 21 22 20 19 17 14 12 12 12 13 15 16 16 16 15 14 11 8 5 6 10 15 20 24 26 27 25 14 -2 -21 -18 -3 15 24 17 13 12 13 14 17 18 12 10 12 15 15 13 14 15 15 15
9 9 9 9 9 9 9 9 10 11 12 13 14 15 16 17 19 21 23 25 26 25 23 19 15 14 14 15 16 17 17 16 15 15 13 10 6 6 8 13 18 21 23 24 25 23 14 -2 -13 -6 8 21 15 12 11 11 15 17 16 8 8 11 14 12 10 13 16 15 13
9 9 9 9 9 9 9 10 10 11 12 13 14 15 16 17 19 22 24 26 29 30 29 25 20 17 16 17 18 19 18 18 16 15 14 12 8 6 7 11 15 18 20 22 23 24 22 14 -1 -4 2 20 15 11 9 10 14 14 10 2 -0 2 4 3 4 13 21 22 15
9 9 9 10 10 10 10 10 11 12 13 13 14 15 17 18 19 21 23 26 30 33 34 32 27 22 20 19 20 20 20 20 18 16 15 13 10 7 6 9 12 15 18 21 23 25 25 21 10 1 2 16 11 6 2 2 7 8 4 -5 -11 -12 -10 -8 -4 9 21 22 19
10 9 10 10 10 10 11 11 12 13 14 14 15 17 18 20 21 22 23 25 30 34 37 36 32 28 24 22 22 22 22 22 20 18 16 14 11 8 6 8 10 12 15 19 23 26 27 24 15 9 7 12 13 13 13 11 11 10 5 -5 -16 -20 -19 -17 -17 -4 9 12 17
10 10 10 10 11 11 12 13 13 14 15 16 18 19 21 22 23 24 25 27 31 35 37 38 35 31 27 25 24 23 23 23 22 20 17 15 12 9 7 7 9 10 13 17 21 26 29 26 19 14 12 10 14 13 10 7 11 11 6 -4 -12 -16 -16 -16 -22 -17 -5 8 12
10 10 11 11 11 12 13 14 15 15 16 18 20 22 23 23 23 24 26 29 31 33 35 36 34 31 28 27 26 25 24 24 23 21 18 15 13 10 8 7 9 11 13 15 19 23 27 27 21 18 15 10 13 14 13 9 10 9 5 -2 -6 -6 -6 -8 -11 -10 -6 1 4
11 11 11 12 12 13 14 15 16 17 18 19 22 23 23 22 21 22 24 27 29 30 30 32 32 30 29 29 29 28 27 25 24 22 19 15 13 11 9 8 11 13 15 15 16 20 25 29 24 19 15 14 16 17 16 11 10 9 7 1 -2 -1 1 2 4 7 10 7 5
11 11 12 12 13 13 15 16 17 18 19 21 22 21 20 18 17 17 19 23 24 25 26 29 30 31 31 31 31 31 29 27 25 22 19 15 13 11 10 9 11 14 16 15 13 16 22 30 27 18 10 10 16 21 22 16 11 10 9 7 2 0 3 11 15 15 13 12 8
11 11 12 13 13 14 15 17 17 18 19 21 20 18 15 13 12 13 16 19 20 22 23 26 29 31 31 31 31 30 30 28 26 23 19 15 13 11 10 10 12 14 15 15 13 14 20 29 29 17 3 -3 12 24 29 21 13 10 9 10 6 3 4 14 14 10 6 6 4
Height
3030 3028 3025 3023 3021 3019 3017 3015 3013 3011 3009 3007 3005 3004 3002 3000 2998 2996 2995 2993 2991 2990 2988 2987 2985 2984 2983 2981 2979 2978 2976 2975 2973 2971 2970 2968 2966 2965 2963 2962 2961 2960 2959 2958 2957 2957 2956 2955 2955 2955 2955 2955 2955 2954 2954 2953 2953 2952 2952 2951 2951 2951 2951 2951 2951 2951 2951 2952 2952
3029 3026 3024 3022 3020 3018 3016 3014 3012 3010 3008 3005 3004 3002 3000 2998 2996 2995 2993 2991 2990 2988 2986 2985 2983 2982 2980 2979 2978 2976 2974 2973 2971 2970 2968 2966 2965 2963 2961 2960 2959 2958 2956 2955 2955 2954 2954 2953 2953 2953 2952 2952 2952 2952 2952 2951 2950 2950 2950 2949 2949 2949 2948 2948 2948 2948 2949 2949 2949
3027 3025 3023 3020 3018 3016 3014 3012 3010 3008 3006 3004 3002 3000 2998 2996 2994 2993 2991 2989 2987 2986 2984 2982 2981 2980 2978 2977 2975 2974 2972 2971 2969 2968 2966 2965 2963 2961 2960 2958 2957 2956 2955 2954 2953 2952 2951 2951 2950 2950 2950 2950 2950 2950 2950 2949 2948 2948 2947 2947 2946 2946 2946 2945 2945 2946 2946 2946 2946
3026 3023 3021 3019 3017 3015 3012 3010 3008 3006 3004 3002 3000 2998 2996 2994 2992 2990 2989 2987 2985 2984 2982 2980 2979 2977 2976 2975 2973 2972 2970 2969 2967 2966 2964 2963 2961 2960 2958 2956 2955 2954 2953 2952 2950 2950 2949 2949 2948 2948 2948 2948 2948 2947 2947 2947 2946 2946 2945 2945 2945 2944 2943 2943 2943 2943 2943 2944 2944
3024 3022 3020 3017 3015 3013 3011 3009 3006 3005 3002 3000 2998 2996 2994 2992 2990 2989 2987 2985 2984 2982 2980 2978 2977 2975 2974 2972 2971 2970 2968 2967 2965 2964 2962 2961 2960 2958 2956 2955 2953 2952 2951 2950 2949 2948 2947 2946 2946 2945 2945 2945 2945 2945 2945 2944 2944 2944 2943 2943 2942 2942 2941 2941 2941 2941 2941 2941 2941
3023 3020 3018 3016 3014 3011 3009 3007 3005 3003 3000 2999 2997 2995 2993 2990 2989 2987 2985 2983 2981 2980 2978 2976 2975 2973 2972 2970 2969 2968 2966 2965 2963 2962 2960 2959 2958 2956 2955 2953 2951 2950 2949 2948 2947 2945 2945 2944 2943 2943 2943 2943 2943 2942 2942 2942 2942 2941 2941 2941 2940 2940 2939 2939 2939 2938 2938 2938 2939
3021 3019 3016 3014 3012 3010 3007 3005 3003 3001 2999 2997 2995 2993 2991 2989 2987 2985 2983 2981 2980 2978 2976 2975 2973 2971 2970 2968 2967 2965 2964 2963 2961 2960 2958 2957 2955 2954 2953 2951 2950 2948 2947 2946 2945 2944 2943 2942 2941 2940 2940 2940 2940 2940 2940 2940 2940 2939 2939 2938 2938 2938 2937 2937 2936 2936 2936 2936 2936
3020 3017 3015 3012 3010 3008 3005 3003 3001 2999 2997 2995 2993 2991 2989 2987 2985 2983 2981 2979 2978 2976 2974 2972 2971 2969 2967 2966 2965 2963 2962 2960 2959 2958 2956 2955 2953 2952 2951 2949 2948 2946 2945 2944 2943 2942 2941 2940 2939 2938 2938 2938 2938 2938 2938 2937 2937 2937 2936 2936 2936 2936 2935 2935 2935 2934 2934 2934 2934
3018 3015 3013 3011 3008 3006 3004 3002 3000 2997 2995 2993 2991 2989 2987 2985 2983 2981 2979 2977 2975 2974 2972 2970 2969 2967 2965 2964 2962 2961 2959 2958 2957 2955 2954 2953 2951 2950 2949 2947 2946 2945 2944 2942 2941 2940 2939 2938 2937 2936 2936 2935 2935 2935 2935 2935 2935 2934 2934 2934 2934 2934 2934 2933 2933 2932 2932 2931 2931
3016 3014 3011 3009 3007 3004 3002 3000 2998 2995 2993 2991 2989 2987 2985 2983 2981 2979 2977 2975 2973 2972 2970 2968 2966 2965 2963 2962 2960 2959 2957 2956 2954 2953 2952 2950 2949 2948 2947 2945 2944 2943 2942 2940 2939 2938 2937 2936 2935 2934 2934 2933 2933 2933 2933 2932 2932 2932 2932 2932 2932 2932 2932 2931 2931 2930 2930 2930 2929
3015 3012 3010 3007 3005 3003 3000 2998 2996 2994 2991 2989 2987 2985 2983 2981 2979 2977 2975 2973 2971 2970 2968 2966 2964 2963 2961 2960 2958 2957 2955 2954 2952 2951 2950 2949 2947 2946 2945 2944 2942 2941 2940 2939 2937 2936 2935 2934 2933 2932 2932 2931 2931 2930 2930 2930 2930 2930 2930 2930 2930 2930 2930 2929 2929 2928 2928 2928 2927
3013 3010 3008 3005 3003 3001 2999 2996 2994 2992 2990 2987 2985 2983 2981 2979 2977 2975 2973 2971 2970 2968 2966 2964 2962 2961 2959 2958 2956 2955 2953 2952 2950 2949 2948 2946 2945 2944 2943 2942 2940 2940 2938 2937 2936 2935 2934 2933 2931 2931 2930 2930 2929 2928 2928 2928 2927 2927 2927 2927 2928 2928 2927 2927 2927 2927 2926 2926 2925
3011 3009 3006 3004 3001 2999 2997 2995 2992 2990 2988 2985 2983 2981 2979 2977 2975 2973 2971 2969 2968 2966 2964 2962 2960 2959 2957 2956 2954 2953 2951 2950 2949 2947 2946 2945 2943 2942 2941 2940 2939 2938 2937 2936 2935 2934 2933 2932 2930 2930 2929 2928 2927 2927 2926 2926 2925 2925 2925 2925 2925 2925 2925 2925 2925 2925 2925 2924 2924
3010 3007 3005 3002 3000 2997 2995 2993 2990 2988 2986 2984 2982 2980 2977 2975 2973 2971 2969 2967 2965 2964 2962 2960 2959 2957 2955 2954 2953 2951 2950 2948 2947 2945 2944 2943 2941 2940 2939 2938 2937 2936 2935 2935 2934 2933 2932 2931 2930 2929 2928 2927 2926 2925 2925 2924 2924 2924 2924 2924 2924 2923 2923 2923 2923 2923 2923 2922 2922
3008 3006 3003 3001 2998 2996 2993 2991 2989 2986 2984 2982 2980 2978 2975 2974 2971 2970 2967 2965 2964 2962 2960 2959 2957 2956 2954 2953 2951 2950 2948 2947 2945 2944 2942 2941 2940 2938 2937 2936 2935 2935 2934 2934 2934 2933 2931 2930 2929 2928 2927 2925 2925 2924 2923 2923 2922 2922 2922 2922 2921 2921 2921 2921 2921 2921 2921 2921 2920
3007 3004 3002 2999 2997 2994 2992 2989 2987 2985 2983 2980 2978 2976 2974 2972 2970 2968 2965 2964 2962 2960 2959 2957 2955 2954 2953 2951 2950 2948 2947 2945 2944 2942 2941 2940 2938 2937 2935 2935 2934 2933 2933 2933 2933 2931 2930 2929 2927 2926 2925 2924 2923 2922 2921 2921 2921 2920 2920 2920 2920 2919 2919 2919 2919 2919 2919 2919 2919
3005 3003 3000 2998 2995 2993 2990 2988 2985 2983 2981 2979 2977 2975 2972 2970 2968 2966 2964 2962 2960 2959 2957 2956 2954 2952 2951 2950 2948 2947 2945 2944 2943 2941 2939 2938 2936 2935 2934 2933 2932 2932 2932 2932 2931 2930 2929 2928 2927 2925 2924 2923 2921 2920 2920 2919 2919 2919 2919 2919 2918 2918 2917 2917 2917 2917 2917 2917 2917
3004 3001 2999 2996 2994 2991 2989 2986 2984 2982 2980 2977 2975 2973 2971 2969 2966 2965 2962 2960 2959 2957 2956 2954 2953 2951 2950 2948 2947 2945 2944 2943 2941 2940 2938 2936 2935 2933 2932 2931 2931 2930 2930 2931 2930 2929 2928 2927 2926 2925 2923 2921 2920 2919 2918 2918 2918 2918 2917 2917 2916 2916 2916 2915 2915 2915 2915 2915 2915
3002 3000 2997 2995 2992 2990 2987 2985 2983 2980 2978 2976 2974 2972 2970 2967 2965 2963 2961 2959 2957 2956 2954 2953 2951 2950 2949 2947 2945 2944 2943 2941 2940 2938 2936 2935 2933 2932 2930 2930 2930 2929 2930 2930 2929 2928 2927 2926 2925 2923 2921 2920 2918 2917 2917 2917 2917 2916 2916 2915 2915 2915 2914 2914 2914 2914 2914 2914 2914
3001 2998 2996 2993 2991 2988 2986 2984 2981 2979 2977 2975 2972 2970 2968 2966 2964 2962 2960 2958 2956 2954 2953 2951 2950 2949 2947 2946 2944 2943 2941 2940 2938 2937 2935 2933 2932 2930 2929 2928 2928 2928 2929 2929 2928 2927 2925 2924 2922 2921 2920 2918 2917 2916 2916 2915 2915 2915 2915 2914 2914 2913 2913 2912 2912 2912 2912 2912 2912
3000 2997 2995 2992 2990 2987 2985 2982 2980 2978 2975 2973 2971 2969 2967 2965 2963 2960 2958 2956 2955 2953 2951 2950 2949 2947 2946 2944 2943 2941 2940 2938 2937 2935 2934 2932 2930 2929 2928 2927 2927 2927 2927 2927 2926 2925 2924 2922 2920 2919 2918 2917 2916 2915 2915 2914 2914 2913 2913 2913 2912 2912 2911 2911 2910 2910 2910 2910 2910
2998 2995 2993 2990 2988 2986 2983 2981 2979 2976 2974 2972 2970 2968 2966 2964 2961 2959 2957 2955 2953 2951 2950 2948 2947 2946 2944 2943 2941 2940 2939 2937 2935 2934 2932 2930 2929 2927 2926 2925 2925 2926 2926 2926 2925 2924 2922 2921 2920 2919 2917 2916 2915 2914 2913 2913 2912 2912 2912 2911 2911 2911 2910 2910 2909 2909 2909 2908 2909
2997 2994 2992 2989 2987 2985 2982 2980 2978 2975 2973 2971 2969 2967 2965 2962 2960 2958 2956 2954 2952 2950 2948 2947 2945 2944 2943 2941 2940 2938 2937 2936 2934 2933 2931 2929 2928 2926 2925 2924 2924 2925 2925 2925 2924 2923 2922 2921 2921 2919 2916 2915 2914 2913 2912 2911 2911 2910 2910 2910 2910 2909 2909 2908 2908 2907 2907 2907 2907
2996 2993 2991 2988 2986 2984 2981 2979 2977 2975 2972 2970 2968 2965 2963 2961 2959 2957 2955 2953 2950 2949 2947 2945 2944 2942 2941 2940 2938 2937 2935 2934 2933 2931 2930 2928 2926 2925 2924 2923 2923 2923 2923 2923 2922 2921 2922 2923 2922 2918 2915 2913 2912 2912 2911 2910 2910 2909 2909 2909 2908 2908 2907 2907 2906 2906 2905 2905 2905
2995 2992 2990 2987 2985 2982 2980 2978 2975 2973 2971 2969 2966 2964 2962 2960 2958 2955 2954 2951 2949 2947 2945 2943 2942 2940 2939 2938 2936 2935 2934 2932 2931 2930 2929 2927 2925 2924 2922 2921 2921 2921 2922 2921 2921 2920 2921 2923 2921 2917 2914 2912 2911 2910 2910 2909 2909 2908 2908 2907 2907 2906 2906 2905 2905 2905 2904 2904 2903
2994 2991 2989 2986 2984 2981 2979 2977 2974 2972 2970 2967 2965 2963 2960 2958 2956 2954 2952 2950 2948 2946 2944 2942 2940 2939 2937 2936 2935 2933 2932 2930 2930 2928 2927 2926 2924 2923 2921 2920 2920 2920 2920 2920 2919 2919 2919 2920 2919 2916 2912 2910 2909 2909 2908 2908 2907 2907 2906 2906 2906 2905 2905 2904 2904 2903 2903 2902 2902
2993 2990 2988 2985 2983 2980 2978 2975 2973 2970 2968 2966 2963 2961 2959 2957 2955 2952 2950 2948 2946 2944 2942 2940 2938 2936 2935 2934 2933 2931 2930 2929 2928 2926 2925 2924 2923 2921 2920 2919 2918 2918 2918 2918 2918 2917 2917 2918 2917 2914 2911 2909 2908 2907 2907 2906 2906 2906 2905 2905 2905 2905 2904 2903 2902 2902 2901 2901 2900
2991 2989 2987 2984 2982 2979 2976 2974 2971 2969 2966 2964 2962 2959 2957 2955 2953 2950 2948 2946 2944 2942 2940 2938 2936 2935 2933 2931 2930 2929 2928 2927 2925 2925 2924 2922 2921 2920 2918 2917 2917 2916 2916 2916 2916 2915 2915 2915 2915 2913 2910 2908 2907 2906 2906 2905 2905 2905 2905 2905 2904 2904 2903 2902 2901 2900 2900 2900 2899
2990 2988 2985 2983 2980 2978 2975 2972 2970 2967 2965 2962 2960 2957 2955 2953 2950 2948 2946 2944 2942 2940 2938 2936 2934 2932 2931 2929 2928 2927 2926 2925 2924 2923 2922 2921 2920 2918 2917 2916 2915 2915 2915 2914 2914 2913 2913 2913 2912 2911 2909 2907 2906 2905 2905 2905 2905 2904 2904 2904 2904 2903 2902 2901 2900 2900 2899 2899 2898
2989 2986 2984 2981 2979 2976 2973 2970 2968 2965 2963 2960 2958 2955 2953 2950 2948 2945 2944 2941 2940 2938 2936 2934 2932 2930 2929 2927 2925 2925 2923 2922 2921 2920 2920 2919 2918 2917 2915 2914 2913 2913 2912 2912 2912 2911 2911 2911 2910 2910 2908 2906 2905 2905 2905 2904 2904 2904 2904 2904 2904 2903 2902 2901 2900 2899 2898 2898 2897
2988 2985 2982 2980 2977 2974 2971 2969 2966 2963 2961 2958 2955 2953 2950 2948 2945 2943 2941 2939 2937 2935 2933 2931 2930 2928 2926 2925 2923 2922 2921 2920 2919 2918 2917 2917 2916 2915 2914 2913 2911 2911 2910 2910 2910 2910 2909 2909 2909 2908 2907 2906 2905 2905 2904 2904 2904 2904 2904 2904 2903 2903 2902 2901 2900 2898 2897 2897 2896
2986 2983 2980 2978 2975 2972 2970 2967 2964 2961 2959 2956 2953 2951 2948 2945 2943 2941 2938 2936 2934 2932 2930 2929 2927 2925 2924 2922 2921 2920 2919 2918 2917 2916 2915 2915 2914 2913 2912 2911 2910 2909 2909 2908 2908 2908 2908 2908 2908 2908 2907 2906 2905 2904 2904 2904 2904 2904 2904 2904 2903 2903 2902 2901 2900 2898 2896 2896 2895
2984 2982 2979 2976 2973 2971 2968 2965 2963 2960 2957 2954 2951 2949 2946 2943 2941 2938 2936 2933 2931 2929 2927 2925 2924 2922 2921 2920 2918 2917 2916 2915 2915 2914 2913 2913 2912 2911 2911 2910 2909 2908 2907 2907 2906 2906 2906 2907 2907 2907 2906 2905 2905 2904 2904 2904 2904 2904 2904 2904 2903 2903 2902 2901 2900 2898 2896 2895 2895
2983 2980 2977 2975 2972 2969 2966 2964 2961 2958 2955 2953 2950 2947 2944 2941 2938 2935 2933 2930 2928 2926 2924 2922 2921 2920 2918 2917 2916 2915 2914 2913 2912 2912 2911 2910 2910 2910 2909 2909 2908 2907 2906 2905 2905 2905 2905 2905 2906 2906 2906 2905 2904 2904 2904 2904 2904 2904 2904 2903 2903 2902 2901 2900 2900 2898 2896 2895 2895
2981 2979 2976 2973 2971 2968 2965 2963 2960 2957 2954 2951 2948 2945 2942 2939 2936 2933 2930 2928 2925 2923 2921 2920 2918 2917 2915 2914 2913 2912 2911 2910 2910 2910 2909 2909 2908 2908 2907 2907 2907 2906 2905 2905 2904 2904 2904 2904 2905 2905 2905 2904 2904 2903 2903 2903 2903 2903 2903 2903 2902 2901 2900 2899 2900 2900 2898 2895 2894
2980 2978 2975 2972 2970 2967 2964 2961 2958 2955 2952 2949 2946 2943 2940 2937 2934 2931 2928 2925 2923 2920 2918 2916 2915 2914 2913 2912 2911 2910 2909 2908 2908 2907 2907 2907 2906 2906 2905 2905 2905 2905 2905 2904 2903 2903 2902 2903 2903 2904 2904 2904 2903 2903 2903 2903 2902 2902 2902 2902 2902 2901 2900 2899 2899 2900 2900 2896 2894
2980 2977 2974 2971 2969 2966 2963 2960 2957 2954 2950 2947 2944 2941 2938 2935 2932 2930 2926 2923 2920 2918 2916 2914 2913 2911 2910 2909 2908 2908 2907 2906 2905 2905 2905 2905 2905 2904 2904 2904 2904 2904 2904 2903 2903 2902 2902 2901 2902 2902 2903 2903 2903 2903 2902 2902 2902 2902 2901 2901 2900 2900 2900 2899 2899 2899 2900 2898 2895
2979 2976 2973 2970 2967 2965 2961 2958 2955 2952 2949 2946 2943 2940 2937 2934 2931 2928 2925 2922 2919 2917 2914 2912 2911 2910 2908 2907 2906 2906 2905 2905 2904 2904 2904 2903 2903 2903 2903 2902 2903 2903 2903 2903 2902 2901 2901 2901 2901 2901 2901 2902 2902 2902 2902 2901 2901 2901 2901 2900 2900 2900 2900 2899 2899 2898 2898 2898 2895
2978 2975 2972 2969 2966 2963 2960 2957 2954 2951 2947 2945 2942 2939 2936 2933 2930 2928 2925 2922 2919 2916 2914 2912 2910 2908 2907 2906 2905 2904 2904 2903 2903 2902 2902 2902 2902 2902 2902 2901 2901 2901 2902 2902 2901 2901 2900 2900 2900 2900 2901 2901 2902 2902 2901 2900 2900 2900 2900 2900 2899 2899 2899 2899 2899 2898 2897 2895 2894
2977 2974 2971 2968 2965 2962 2959 2956 2953 2950 2946 2944 2941 2938 2935 2933 2930 2927 2925 2922 2919 2916 2914 2912 2910 2908 2906 2905 2904 2903 2903 2902 2901 2901 2901 2901 2901 2901 2901 2901 2900 2900 2901 2901 2901 2900 2900 2900 2900 2900 2900 2900 2900 2900 2900 2899 2899 2900 2900 2899 2899 2899 2899 2899 2899 2898 2897 2893 2892
2976 2974 2971 2968 2965 2961 2958 2955 2952 2949 2946 2943 2940 2938 2935 2932 2930 2927 2925 2922 2919 2917 2914 2912 2910 2908 2906 2905 2904 2903 2902 2901 2901 2900 2900 2900 2900 2900 2900 2900 2900 2900 2900 2900 2900 2900 2900 2900 2900 2900 2900 2900 2900 2899 2898 2898 2898 2898 2898 2898 2898 2898 2898 2898 2898 2897 2895 2892 2891